星链-5881 (STARLINK-5881 )

导读 | 星芒AI

STARLINK-5881 是 SpaceX 星链计划中的一颗低轨通信卫星,属于第 21 批星链组网卫星。该卫星于 2023 年发射,运行在约 550 公里的近地轨道,旨在为全球用户提供高速互联网服务。作为星链星座的一部分,STARLINK-5881 支持宽带通信,提升偏远地区的网络覆盖。其采用先进推进系统,具备自主变轨和避碰能力,有助于维持轨道安全与星座稳定性。

基本信息
目录编号:
57054
目录名称:
STARLINK-5881
国际标识:
2023-088G
轨道中心:
EARTH
卫星名称:
星链-5881
卫星全名:
星链-5881 (STARLINK-5881 )
卫星状态:
在轨 (已飞行913 天)
发射日期:
2023-06-22 UTC
国别 :
美国 (US)
星等 :
--
轨道信息
数据来源 国际轨道数据 AOE轨道数据
星历时间 2025-12-21T20:44:42+0800
5小时前
查看轨道信息
2025-12-20T11:00:00+0800
1天前
查看轨道信息
半长轴 6937.23km 6937.204km
偏心率 0.000142 0.0001443
轨道倾角 43.003° 43.007°
近地点辐角 264.733° 324.076°
升交点赤经 172.085° 179.728°
平近点角 95.335° 341.855°
近地点 558.107km 558.065km
远地点 560.079km 560.069km
周期 95.838分钟 95.838分钟
每日圈数 15.025319 15.025402
详细信息
固有亮度:
5
最大亮度:
2.4
卫星平台:
Starlink v1.5
覆盖范围:
全球
运营商:
太空探索技术公司
运营商所在国:
美国
制造商(研发单位):
太空探索技术公司
制造商所在国:
美国
使用方式:
暂无
卫星简介
星链(Starlink)计划是由太空探索技术公司(SpaceX)提出的一个巨型低轨卫星互联网星座项目,计划在2019年至2024年间在太空搭建由约1.2万颗卫星组成的“星链”网络,其中1584颗将部署在地球上空550千米处的近地轨道,并从2020年开始工作。该卫星仍在工作。
2D轨道图
3D轨道图
轨道高度分析图
轨道倾角分析图
轨道综合分析图
查看轨道综合分析图